Regional Weather Roundup
Issued by NWS

Home | Current Version | Previous Version | Graphics & Text | Print | Product List | Glossary On
Versions: 1 2 3 4 5 6 7 8 9 10 11 12 13 14 15 16 17 18 19 20 21 22 23 24 25 26 27 28 29 30 31 32 33 34 35 36 37 38 39 40 41 42 43 44 45 46 47 48 49 50
000
ASUS43 KTOP 252359
RWRKS

WEATHER ROUNDUP FOR KANSAS
NATIONAL WEATHER SERVICE GOODLAND KS
700 PM CDT SUN JUN 25 2017

NOTE:  "FAIR" INDICATES FEW OR NO CLOUDS BELOW 12,000 FEET WITH NO
SIGNIFICANT WEATHER AND/OR OBSTRUCTIONS TO VISIBILITY.

KSZ001>006-013>018-027>032-041>047-260100-
NORTHWEST KANSAS

CITY           SKY/WX    TMP DP  RH WIND       PRES   REMARKS
GOODLAND       CLOUDY    62  58  86 E12       30.27F
6HR MIN TEMP:  60; 6HR MAX TEMP:  63;

HAYS           LGT RAIN  61  58  90 E7        30.28S
HILL CITY      CLOUDY    63  61  93 E12       30.25F
6HR MIN TEMP:  57; 6HR MAX TEMP:  67;

RUSSELL        CLOUDY    64  54  69 NE5       30.27R
6HR MIN TEMP:  60; 6HR MAX TEMP:  69; 6HR PCP:  0.13;

$$

KSZ061>065-074>080-084>089-260100-
SOUTHWEST KANSAS

CITY           SKY/WX    TMP DP  RH WIND       PRES   REMARKS
DODGE CITY     CLOUDY    70  58  65 SE14      30.24S
6HR MIN TEMP:  61; 6HR MAX TEMP:  76; 6HR PCP:  0.35;

ELKHART          N/A    N/A N/A N/A MISG        N/A
GARDEN CITY    SUNNY     71  54  54 SE21G26   30.22F
6HR MIN TEMP:  61; 6HR MAX TEMP:  76; 6HR PCP:  0.07;

GREAT BEND     CLOUDY    63  57  81 NE14      30.27R
LIBERAL        CLOUDY    63  58  83 E20G30    30.22S
$$

KSZ066>073-081>083-090>101-260100-
SOUTHEAST KANSAS

CITY           SKY/WX    TMP DP  RH WIND       PRES   REMARKS
CHANUTE        LGT RAIN  73  53  49 N14G21    30.24S
6HR MIN TEMP:  73; 6HR MAX TEMP:  86; 6HR PCP: TRACE;

COFFEYVILLE    CLOUDY    80  60  50 NE14      30.20S
6HR MIN TEMP:  80; 6HR MAX TEMP:  87;

HUTCHINSON     CLOUDY    67  57  70 E12       30.24S
6HR MIN TEMP:  67; 6HR MAX TEMP:  76; 6HR PCP: TRACE;

MEDICINE LODGE   N/A     73  58  59 E13       30.21S
NEWTON         CLOUDY    63  55  75 NE9       30.26S
PARSONS        CLOUDY    76  59  55 N12G21    30.24R
6HR MIN TEMP:  76; 6HR MAX TEMP:  87;

WICHITA INTL   CLOUDY    69  61  75 E13       30.23F
6HR MIN TEMP:  69; 6HR MAX TEMP:  82; 6HR PCP:  0.05;

WICHITA JABRA  CLOUDY    66  60  81 NE10      30.23F
6HR MIN TEMP:  66; 6HR MAX TEMP:  81;

WINFIELD       LGT RAIN  69  65  86 NE13      30.24F
6HR MIN TEMP:  69; 6HR MAX TEMP:  85; 6HR PCP:  0.10;

$$

KSZ007>012-019>026-033>040-048>060-102>105-260100-
NORTHEAST KANSAS

CITY           SKY/WX    TMP DP  RH WIND       PRES   REMARKS
CONCORDIA      SUNNY     68  52  56 SE3       30.26F
6HR MIN TEMP:  59; 6HR MAX TEMP:  68; 6HR PCP:  0.04;

EMPORIA        CLOUDY    65  54  67 NE6       30.27F
6HR MIN TEMP:  63; 6HR MAX TEMP:  77; 6HR PCP:  0.01;

LAWRENCE       CLOUDY    65  55  70 W3        30.26F
6HR MIN TEMP:  62; 6HR MAX TEMP:  78; 6HR PCP: TRACE;

MANHATTAN      CLOUDY    67  59  75 SE5       30.26F
6HR MIN TEMP:  61; 6HR MAX TEMP:  70; 6HR PCP:  0.10;

OLATHE IND     LGT RAIN  63  54  72 SW5       30.27F
6HR MIN TEMP:  63; 6HR MAX TEMP:  79; 6HR PCP:  0.01;

OLATHE EXE     CLOUDY    64  52  64 W3        30.27S
6HR MIN TEMP:  64; 6HR MAX TEMP:  79; 6HR PCP: TRACE;

SALINA         CLOUDY    68  54  60 SE10      30.26F
6HR MIN TEMP:  64; 6HR MAX TEMP:  72; 6HR PCP:  0.07;

TOPEKA BILLARD CLOUDY    64  56  75 CALM      30.25F
6HR MIN TEMP:  63; 6HR MAX TEMP:  76; 6HR PCP: TRACE;

TOPEKA FORBES  CLOUDY    63  57  81 CALM      30.26F
6HR MIN TEMP:  62; 6HR MAX TEMP:  78; 6HR PCP:  0.05;

$$



USA.gov is the U.S. government's official web portal to all federal, state and local government web resources and services.